Temperature
16 15 15 15 15 15 15 15 15 14 13 13 13 13 12 12 12 12 12 12 12 12 12 12 11 11 10 9 9 8 8 8 7 7 7 8 8 9 9 9 9 9 9
15 15 15 14 14 15 15 14 14 13 13 13 13 13 12 12 12 12 12 12 12 11 11 11 10 10 9 8 8 7 7 7 7 6 6 6 6 7 6 6 7 7 8
15 15 14 14 14 15 15 15 14 14 13 13 13 12 12 12 12 12 12 11 11 11 11 10 9 9 8 7 7 7 7 6 6 5 5 4 5 4 5 5 5 6 6
15 14 14 13 14 14 14 14 14 13 13 13 13 13 13 12 12 11 11 11 11 10 10 10 9 8 8 7 7 6 6 5 5 5 4 4 4 3 3 3 4 4 4
15 14 13 13 13 14 14 14 14 13 13 13 13 13 13 12 12 11 10 10 10 10 9 9 9 8 7 7 6 6 5 5 4 3 3 3 3 2 2 2 2 2 2
14 14 13 13 13 13 13 14 14 13 13 13 13 12 12 11 11 11 10 9 9 9 9 9 8 7 7 6 5 5 5 4 3 3 2 2 1 1 1 1 1 1 1
14 13 12 12 12 13 13 13 13 13 12 12 12 12 11 11 11 10 10 9 9 9 8 8 7 6 6 5 5 4 4 3 2 2 2 1 1 0 0 0 0 0 0
13 12 12 12 12 12 12 12 13 12 12 12 12 11 11 10 10 9 9 8 8 8 7 7 6 5 5 4 4 3 3 2 1 1 1 0 0 -0 -0 -0 -0 -1 -1
13 12 11 11 11 12 12 12 12 12 12 11 11 11 10 10 9 9 8 8 7 7 6 5 5 4 4 3 3 2 2 1 0 0 -0 -1 -1 -1 -1 -1 -1 -1 -2
13 12 11 11 11 11 11 12 12 12 11 11 10 10 9 9 8 8 7 7 6 6 5 4 4 3 3 3 2 2 1 0 -0 -1 -1 -1 -1 -2 -2 -2 -2 -2 -3
13 12 11 11 10 11 11 11 11 11 11 10 10 9 8 8 7 7 6 6 5 4 4 3 3 3 2 2 2 1 -0 -1 -2 -2 -2 -2 -2 -3 -3 -3 -3 -3 -4
13 12 11 11 11 11 11 11 11 11 10 9 9 8 7 7 6 6 5 5 4 3 3 2 2 2 2 1 1 -1 -1 -2 -3 -3 -3 -3 -4 -4 -4 -4 -4 -5 -5
13 12 11 10 10 10 10 10 10 10 9 8 8 7 6 6 5 5 4 4 3 2 2 2 2 2 1 1 -1 -2 -3 -3 -3 -4 -5 -5 -5 -5 -5 -5 -5 -5 -6
13 12 11 10 9 9 9 9 9 9 8 8 7 6 5 5 4 4 3 3 2 2 2 2 1 1 0 -1 -2 -3 -4 -4 -5 -5 -6 -6 -6 -5 -5 -5 -5 -6 -6
13 12 11 9 9 8 8 8 8 8 7 7 6 5 4 4 4 3 2 2 2 1 1 1 1 -0 -2 -3 -3 -4 -4 -5 -6 -6 -6 -6 -6 -6 -5 -5 -6 -6 -6
13 12 10 9 8 8 7 7 7 7 6 6 5 4 4 3 3 2 2 1 1 1 1 0 -1 -2 -3 -4 -4 -5 -5 -6 -6 -7 -7 -7 -6 -6 -6 -6 -6 -6 -7
12 11 10 9 8 7 7 6 6 6 5 5 4 3 3 3 2 1 1 1 0 0 -0 -1 -2 -2 -3 -4 -5 -5 -6 -7 -7 -7 -7 -7 -7 -7 -7 -7 -7 -7 -7
12 11 10 9 8 7 6 5 5 5 4 4 3 3 2 2 1 0 0 0 -0 -0 -1 -2 -2 -3 -4 -5 -5 -6 -6 -7 -8 -8 -8 -8 -8 -7 -7 -7 -7 -7 -8
10 9 9 8 7 6 5 5 4 4 3 3 2 2 1 1 0 0 0 -0 -1 -1 -2 -2 -3 -4 -5 -6 -6 -6 -7 -7 -8 -8 -8 -8 -8 -8 -7 -7 -8 -8 -8
9 8 8 7 6 5 5 4 3 3 2 2 2 1 0 -0 -0 -0 -0 -1 -2 -2 -2 -3 -4 -5 -6 -6 -7 -7 -7 -7 -8 -8 -8 -8 -8 -8 -8 -8 -8 -9 -9
8 8 7 6 6 5 4 3 3 2 2 1 1 0 -0 -0 -0 -1 -1 -2 -2 -2 -3 -4 -5 -6 -7 -7 -7 -7 -8 -8 -8 -8 -9 -9 -9 -8 -8 -8 -9 -9 -9
7 7 6 6 4 4 3 2 2 1 1 0 -0 -0 -0 -1 -1 -2 -2 -2 -3 -4 -5 -6 -6 -7 -8 -8 -9 -9 -8 -8 -9 -9 -9 -9 -9 -9 -9 -9 -10 -10 -10
6 6 5 4 3 3 2 2 1 0 -0 -0 -0 -0 -1 -1 -2 -3 -3 -3 -4 -5 -6 -7 -8 -8 -8 -9 -9 -9 -9 -9 -9 -9 -9 -9 -9 -9 -10 -11 -11 -11 -11
5 4 4 3 3 2 1 0 0 -0 -0 -1 -1 -1 -1 -2 -3 -3 -3 -4 -6 -7 -7 -8 -8 -9 -9 -9 -9 -9 -9 -9 -10 -10 -9 -10 -10 -11 -11 -11 -12 -12 -12
4 3 2 2 1 1 -0 -0 -0 -1 -1 -1 -1 -2 -3 -3 -3 -3 -4 -6 -7 -8 -8 -8 -8 -9 -9 -9 -9 -9 -9 -10 -10 -9 -10 -11 -11 -12 -12 -12 -12 -12 -12
3 2 1 0 0 -0 -0 -1 -1 -1 -1 -2 -2 -3 -3 -3 -4 -4 -5 -6 -7 -8 -8 -9 -9 -9 -9 -9 -9 -10 -10 -10 -10 -10 -11 -12 -12 -12 -12 -12 -12 -12 -12
Wind_Speed
9 7 8 8 8 8 8 9 10 9 9 9 9 8 7 7 6 6 10 12 12 12 9 6 6 7 6 7 8 6 8 6 7 6 7 8 8 7 12 13 12 13 11
9 7 8 8 8 9 9 10 10 11 11 9 8 8 8 7 6 5 7 12 12 11 9 7 6 7 6 8 7 6 5 6 7 6 6 5 6 6 11 8 9 11 10
12 10 10 9 9 9 9 10 11 12 12 12 9 8 7 6 5 5 5 7 11 11 9 7 5 7 6 6 6 6 7 6 6 6 5 5 5 11 5 9 10 9 10
13 11 10 10 9 8 8 10 10 10 10 9 9 10 7 6 5 4 4 6 9 9 8 7 6 6 6 6 6 7 5 6 6 5 5 6 9 8 9 6 7 10 11
13 12 11 10 9 8 9 9 10 10 10 10 10 10 8 6 4 5 6 6 6 7 7 7 5 6 5 6 7 6 7 5 5 4 5 7 7 9 12 13 10 8 7
13 12 11 11 9 8 8 8 10 10 10 10 10 10 9 8 7 6 5 4 5 5 6 6 5 5 4 5 6 6 8 6 7 6 6 6 6 9 11 15 15 12 8
13 13 12 10 9 9 8 8 10 10 9 10 10 9 9 9 8 6 6 5 4 4 5 5 5 5 5 5 6 6 8 8 8 7 7 6 7 8 10 13 15 17 12
13 12 12 11 10 10 9 9 10 10 9 9 9 8 8 6 6 7 5 5 4 3 5 6 6 5 5 5 6 6 8 8 8 10 9 7 8 7 8 10 13 18 18
14 13 12 11 11 10 9 10 10 10 9 9 9 8 8 7 6 6 6 4 4 4 6 6 6 6 6 7 7 6 8 9 8 9 10 8 8 7 8 8 8 11 20
15 14 12 12 10 9 9 10 10 9 9 8 7 7 8 7 6 6 6 6 5 5 6 6 6 7 7 8 7 7 8 9 9 9 10 10 9 8 8 8 7 7 12
17 15 13 12 11 10 9 9 9 9 9 8 8 8 7 6 6 6 5 5 5 6 6 6 7 7 8 8 8 8 10 11 10 10 12 13 12 10 8 7 7 7 8
15 14 13 13 12 10 9 9 9 9 8 8 8 8 6 6 6 5 5 5 5 5 6 6 7 8 9 9 9 10 11 10 10 12 13 14 14 12 9 8 8 7 8
14 12 12 12 11 10 10 9 9 9 8 7 8 7 6 6 5 5 5 5 5 6 6 7 7 8 9 9 9 10 10 8 11 13 15 16 15 14 9 9 9 9 13
14 12 12 11 10 10 9 9 9 9 8 7 8 8 6 5 4 4 4 4 5 6 7 7 8 9 10 10 10 9 8 9 10 12 15 16 16 13 11 12 11 11 11
14 13 12 11 10 10 9 9 9 9 8 7 8 7 4 3 2 3 4 5 6 7 8 8 9 9 9 10 11 9 11 9 11 13 15 17 20 23 19 16 11 11 13
13 12 12 11 11 10 10 9 9 8 7 8 7 5 3 2 2 3 4 6 7 8 8 8 9 9 11 19 23 18 10 9 11 16 17 17 17 20 25 28 28 26 20
11 11 11 11 10 10 10 9 9 8 7 8 6 4 2 2 2 4 5 6 7 7 8 9 9 10 12 22 23 22 13 9 11 15 16 16 17 21 13 23 27 23 25
10 10 10 10 10 10 10 9 9 8 7 7 5 4 1 1 3 5 6 6 7 7 8 9 10 10 14 23 23 23 12 9 11 13 15 15 14 18 22 19 18 16 15
10 10 11 12 10 10 10 10 9 8 7 6 4 3 2 2 4 5 6 6 7 8 9 9 10 11 13 21 23 22 9 9 11 13 14 17 17 27 31 22 21 19 15
11 11 12 12 11 10 10 9 8 7 6 5 3 2 1 3 4 5 6 6 7 8 9 10 10 11 10 19 23 23 8 10 11 11 12 21 24 30 32 23 20 18 16
11 11 11 10 9 9 9 9 8 7 6 4 2 1 1 3 4 5 5 7 8 9 9 11 10 9 13 18 23 25 13 12 14 14 14 14 29 33 34 29 15 21 25
10 10 10 9 8 8 9 9 7 6 5 3 1 1 2 4 4 5 6 7 8 9 9 9 10 8 10 16 21 27 25 23 17 16 14 17 32 34 32 24 25 32 26
8 8 10 9 7 7 8 8 7 5 4 1 1 3 4 5 5 6 7 7 7 7 8 8 10 10 8 12 24 26 27 28 19 17 26 30 32 28 19 24 30 24 14
7 7 9 8 7 7 7 7 7 5 3 2 4 4 5 5 6 5 6 6 6 7 8 8 10 11 9 9 10 12 16 21 18 16 21 25 25 22 22 21 17 13 13
6 6 7 8 8 7 7 7 6 4 4 4 4 5 5 5 6 6 6 8 6 10 12 8 8 10 12 15 26 22 16 16 19 20 10 8 11 11 12 13 12 13 14
6 6 7 9 8 7 7 6 5 5 4 3 4 4 4 5 6 7 8 12 14 20 21 20 19 15 20 27 28 29 30 31 30 20 12 13 13 14 15 16 16 16 15
Wind_Direction
118 133 129 117 99 94 101 108 111 112 106 105 104 98 91 81 71 65 63 57 50 49 44 29 27 21 19 25 10 7 349 346 337 336 327 309 327 346 359 337 331 330 331
130 135 119 103 99 95 86 82 83 85 89 96 96 99 101 97 92 78 65 64 53 44 43 34 28 19 23 22 5 11 354 344 348 351 339 332 315 7 329 312 329 320 337
146 148 120 104 91 87 90 95 95 97 100 104 107 108 98 93 84 83 79 70 63 47 38 35 30 20 27 17 2 14 1 347 342 356 351 333 309 318 282 325 308 326 328
146 140 124 108 97 91 90 91 94 99 107 115 114 111 109 108 110 109 103 98 80 63 38 38 38 31 31 21 360 5 350 345 330 334 340 308 309 314 309 295 307 314 311
142 135 124 116 102 90 87 88 84 81 84 89 97 104 107 110 104 95 83 96 89 74 43 37 38 38 29 12 357 348 335 327 317 318 313 307 308 305 307 305 303 296 291
136 125 117 110 105 97 93 95 92 83 79 81 82 92 101 101 92 82 70 74 83 70 46 31 25 30 19 358 343 338 325 315 308 309 301 295 301 306 305 305 307 304 298
140 135 131 127 126 120 116 110 103 94 85 84 82 81 85 85 77 75 66 63 61 55 32 24 12 7 357 347 339 333 315 304 304 303 295 289 288 291 298 302 305 304 302
146 143 141 139 138 139 133 120 111 105 96 90 88 83 79 84 77 67 64 61 58 43 23 15 4 356 349 338 329 316 304 306 303 302 295 293 290 287 297 299 304 306 305
150 148 145 142 141 143 134 125 117 110 107 104 96 86 80 78 75 69 60 51 38 27 13 -0 357 345 333 324 316 302 302 299 297 293 290 291 287 284 285 288 292 300 304
153 152 148 143 142 136 129 128 122 117 107 96 93 91 80 74 71 64 51 41 24 17 354 353 347 332 321 314 311 306 302 302 298 295 296 296 294 290 288 287 289 292 299
158 154 150 142 133 128 129 123 121 117 112 111 103 89 78 68 68 60 44 29 17 5 352 344 330 318 310 310 311 308 308 302 300 304 306 302 301 298 295 297 296 292 293
152 150 145 138 138 142 138 133 130 120 114 107 101 97 90 72 62 53 36 25 12 353 336 325 315 310 311 310 307 305 306 300 310 313 308 306 306 303 302 297 295 296 298
147 146 142 145 148 148 143 140 131 123 118 111 107 103 87 69 54 43 31 12 351 332 320 313 308 305 304 302 299 298 297 310 316 312 309 307 305 300 295 295 295 293 294
150 150 149 151 150 147 143 138 128 120 115 109 103 93 82 67 49 34 11 346 329 315 305 300 297 296 298 299 298 297 310 310 307 308 306 303 299 296 296 296 287 289 292
158 157 154 152 147 142 137 130 122 119 121 114 102 94 85 73 45 17 349 324 309 301 293 294 296 297 301 303 304 312 311 310 311 309 304 299 299 302 302 301 301 302 300
157 151 147 146 146 141 134 125 122 123 123 114 109 108 85 45 23 348 312 300 296 295 297 300 301 304 308 312 313 314 312 310 312 308 303 299 299 303 310 311 307 305 307
142 142 144 142 139 133 129 128 124 122 118 113 110 106 79 24 343 313 305 304 306 307 308 306 307 302 303 313 314 316 317 307 303 302 303 307 312 316 307 303 306 309 307
121 125 123 119 118 117 119 116 118 119 115 113 115 116 95 349 324 314 312 314 313 310 308 305 300 298 305 315 317 317 314 295 295 299 304 308 310 308 306 306 309 307 304
104 107 110 111 109 112 114 114 115 115 116 112 109 100 56 346 322 318 320 318 314 310 304 300 301 302 309 317 317 314 298 295 296 299 305 309 306 306 312 316 311 308 305
88 99 104 106 109 113 118 121 123 120 117 115 105 84 16 309 310 317 318 314 311 302 303 303 303 303 306 316 319 317 305 304 305 304 304 308 310 312 316 316 313 313 311
93 99 104 108 115 123 124 118 115 118 120 114 94 41 312 320 321 320 311 305 300 299 303 307 310 311 316 324 326 323 320 314 314 315 314 312 314 316 317 319 317 313 317
105 108 109 109 114 119 114 113 119 120 119 118 130 313 343 338 324 309 299 296 299 305 310 313 315 318 325 327 324 322 321 321 317 314 313 312 315 318 322 324 320 320 324
116 114 115 115 110 103 113 121 120 118 117 118 9 4 354 327 307 299 296 300 304 309 312 313 315 317 319 321 320 318 318 318 318 312 313 315 319 325 327 322 322 324 318
127 127 128 129 116 97 94 109 116 115 102 41 16 358 328 308 308 304 304 309 312 310 308 309 311 311 310 308 308 308 313 318 318 311 314 322 325 327 325 323 319 314 310
135 135 140 135 126 123 116 110 112 98 55 28 3 332 315 312 310 307 306 313 301 307 315 310 309 313 314 313 318 322 323 323 318 324 327 326 326 324 321 320 318 317 318
124 122 117 118 124 128 123 116 102 76 47 10 332 316 315 316 314 313 311 312 316 320 322 322 318 316 315 318 323 326 327 327 330 335 331 326 323 322 323 322 320 320 319
Height
1466 1469 1470 1471 1471 1472 1472 1474 1475 1478 1480 1482 1484 1485 1487 1490 1492 1493 1494 1494 1494 1493 1492 1491 1489 1487 1484 1482 1480 1477 1475 1472 1469 1465 1460 1458 1458 1456 1453 1451 1447 1445 1442
1465 1468 1470 1470 1470 1470 1472 1473 1475 1478 1479 1480 1482 1485 1488 1490 1492 1493 1494 1494 1493 1492 1490 1488 1486 1484 1482 1480 1477 1475 1473 1471 1468 1464 1459 1455 1452 1451 1449 1446 1444 1441 1437
1463 1466 1468 1468 1469 1470 1471 1473 1475 1477 1479 1481 1483 1486 1489 1491 1493 1493 1493 1493 1492 1491 1489 1487 1484 1482 1480 1478 1476 1473 1471 1469 1467 1466 1464 1459 1452 1446 1442 1440 1437 1435 1431
1460 1464 1466 1467 1469 1470 1472 1474 1476 1478 1480 1482 1483 1485 1488 1490 1492 1492 1492 1491 1491 1489 1486 1484 1482 1480 1478 1476 1474 1472 1470 1468 1465 1463 1462 1460 1455 1447 1436 1433 1432 1429 1425
1457 1461 1464 1466 1468 1471 1472 1475 1477 1478 1480 1482 1484 1486 1488 1490 1490 1490 1490 1488 1487 1486 1484 1482 1480 1478 1476 1474 1472 1470 1468 1466 1463 1460 1457 1453 1450 1445 1438 1426 1421 1420 1419
1455 1459 1462 1465 1468 1471 1473 1476 1478 1479 1481 1482 1484 1486 1487 1488 1488 1488 1488 1487 1485 1484 1483 1481 1479 1476 1474 1472 1470 1468 1465 1463 1460 1456 1453 1449 1445 1440 1435 1426 1416 1411 1409
1452 1456 1460 1464 1467 1470 1474 1476 1478 1479 1480 1482 1483 1484 1485 1486 1487 1487 1486 1485 1484 1482 1480 1478 1476 1474 1472 1469 1467 1465 1462 1459 1456 1452 1448 1444 1441 1437 1432 1425 1415 1406 1399
1450 1454 1458 1463 1466 1470 1473 1475 1477 1478 1479 1481 1481 1482 1483 1484 1485 1485 1484 1483 1482 1480 1478 1476 1473 1471 1469 1466 1464 1461 1458 1455 1451 1447 1443 1439 1435 1432 1428 1423 1415 1402 1391
1448 1452 1457 1462 1465 1469 1472 1474 1475 1476 1478 1479 1480 1481 1482 1483 1483 1483 1482 1481 1479 1477 1475 1472 1470 1468 1466 1463 1460 1457 1454 1450 1446 1442 1438 1433 1429 1425 1421 1417 1413 1406 1391
1445 1450 1456 1460 1464 1467 1470 1472 1473 1475 1476 1477 1479 1479 1480 1481 1481 1481 1480 1478 1476 1474 1471 1469 1467 1465 1463 1460 1457 1453 1448 1444 1440 1436 1432 1427 1422 1418 1414 1410 1406 1401 1394
1441 1447 1453 1457 1461 1465 1467 1469 1471 1472 1474 1475 1476 1478 1479 1479 1479 1478 1477 1475 1473 1471 1468 1466 1464 1462 1459 1456 1451 1447 1442 1438 1434 1430 1425 1420 1415 1410 1406 1402 1397 1393 1388
1439 1445 1450 1454 1458 1461 1464 1466 1468 1470 1472 1473 1474 1475 1477 1477 1476 1475 1474 1472 1470 1468 1466 1463 1461 1458 1454 1450 1445 1440 1436 1432 1427 1422 1417 1412 1407 1403 1399 1394 1390 1385 1380
1438 1444 1448 1451 1455 1458 1461 1463 1465 1467 1469 1470 1471 1472 1474 1474 1474 1472 1471 1469 1467 1465 1462 1459 1456 1453 1449 1444 1439 1434 1430 1426 1421 1416 1410 1405 1400 1395 1392 1387 1382 1377 1372
1436 1441 1445 1449 1452 1455 1458 1460 1462 1464 1466 1468 1469 1470 1471 1472 1471 1470 1468 1466 1464 1461 1458 1455 1452 1448 1443 1438 1434 1429 1424 1419 1414 1408 1403 1398 1394 1390 1385 1380 1375 1370 1365
1433 1438 1442 1446 1450 1452 1455 1457 1459 1461 1463 1465 1467 1468 1469 1469 1468 1467 1465 1463 1460 1458 1455 1451 1447 1443 1438 1434 1430 1424 1418 1412 1406 1400 1396 1392 1389 1385 1381 1376 1370 1365 1358
1430 1436 1441 1444 1447 1449 1452 1454 1456 1459 1461 1463 1465 1466 1466 1466 1465 1464 1462 1459 1457 1454 1451 1447 1442 1438 1434 1429 1424 1419 1412 1406 1400 1393 1389 1386 1383 1379 1374 1370 1365 1359 1352
1429 1434 1439 1442 1445 1447 1449 1452 1454 1456 1459 1461 1462 1463 1464 1464 1462 1460 1458 1456 1454 1451 1447 1442 1438 1432 1428 1423 1418 1413 1407 1400 1394 1389 1384 1381 1377 1373 1367 1361 1355 1350 1344
1429 1433 1438 1441 1444 1446 1448 1450 1452 1455 1457 1459 1460 1461 1461 1460 1459 1457 1455 1453 1450 1446 1442 1437 1431 1426 1421 1417 1412 1407 1401 1395 1390 1385 1381 1375 1370 1365 1360 1353 1346 1339 1335
1428 1432 1436 1439 1441 1443 1446 1448 1451 1453 1455 1457 1458 1458 1458 1457 1456 1454 1452 1449 1446 1441 1437 1432 1426 1421 1415 1411 1407 1402 1395 1390 1384 1380 1376 1371 1364 1359 1354 1346 1338 1330 1324
1428 1431 1434 1437 1440 1442 1445 1447 1449 1452 1454 1455 1456 1456 1455 1454 1452 1451 1449 1446 1442 1437 1432 1426 1421 1416 1411 1406 1402 1398 1392 1385 1379 1374 1369 1365 1359 1353 1346 1339 1330 1322 1314
1429 1432 1434 1436 1439 1441 1444 1446 1448 1450 1452 1453 1453 1452 1452 1451 1450 1448 1445 1441 1436 1431 1426 1421 1416 1412 1407 1401 1397 1393 1388 1382 1374 1368 1362 1357 1352 1345 1339 1332 1325 1317 1309
1430 1432 1434 1436 1439 1441 1443 1444 1447 1449 1450 1450 1450 1450 1449 1448 1447 1444 1441 1437 1432 1426 1421 1415 1410 1406 1402 1397 1392 1388 1384 1378 1371 1363 1357 1350 1344 1338 1331 1325 1318 1311 1304
1431 1433 1434 1436 1438 1440 1442 1444 1446 1447 1448 1448 1448 1448 1447 1446 1444 1440 1436 1432 1427 1422 1417 1412 1406 1400 1396 1391 1387 1383 1378 1372 1366 1359 1352 1345 1338 1331 1324 1318 1312 1305 1297
1431 1432 1434 1435 1437 1439 1441 1443 1444 1445 1446 1446 1446 1446 1445 1443 1440 1437 1433 1428 1423 1418 1413 1408 1402 1397 1391 1387 1382 1377 1372 1366 1359 1352 1344 1338 1332 1325 1319 1312 1305 1299 1293
1430 1431 1433 1434 1436 1439 1440 1442 1443 1444 1444 1444 1444 1443 1441 1439 1435 1432 1428 1424 1420 1416 1412 1406 1401 1395 1388 1384 1380 1375 1368 1361 1354 1346 1339 1332 1325 1319 1312 1306 1300 1293 1287
1429 1430 1432 1434 1436 1438 1439 1441 1442 1443 1443 1443 1442 1440 1438 1435 1431 1426 1422 1419 1416 1412 1408 1403 1399 1393 1388 1382 1376 1370 1364 1357 1350 1342 1335 1329 1322 1316 1309 1302 1295 1289 1283